Starlink 5906

operational
NORAD ID: 55962 Int'l Des: 2023-037 Owner: SPXS Country: US Constellation: starlink
LEOCIRCULAR

About Starlink 5906

Description loading...

Live Position

Loading 3D Globe...

Upcoming Passes

Altitude History

Altitude vs Time

uPlot chart will show altitude changes over time

Two-Line Element Set

1 55962U 23037BA 26035.60276333 -.00000539 00000-0 -37427-4 0 9994
2 55962 70.0017 348.0129 0002775 269.5792 90.5049 14.98328450159514
Epoch: Feb 4, 2026 • Age: 13 hours

Current Status

Altitude 583.7 km
Velocity 7.57 km/s
Sub-Earth Point 61.10°N, 161.52°W
Launch Date Mar 17, 2023
Age 2.8 years
Type internet

Technical Details

Classification Payload
Mass 305.00 kg
Dry Mass 290.00 kg
Total Mass 305.00 kg
Length 0.20 m
Diameter 2.80 m
Span 9.00 m
Shape Box + pan
Manufacturer SPXS
Bus Type Starlink
Phase Status In Orbit
Owner/State SPXS/US

Large Constellations

Loading constellations...